Flag for Indonesia Weather past 2 weeks in Manado, North Sulawesi, Indonesia

Now
82 °F

Passing clouds.


Feels Like: 84 °F
Forecast: 77 / 91 °F
Wind: 12 mph from South

Location: Menado / Dr. Sam Ratulangi

Current Time: Jul 30, 2014 at 9:32:09 PM

Latest Report: Jul 30, 2014 at 9:00 PM


Visibility: N/A

Pressure: 29.86 "Hg

Humidity: 55%

Dew point: 64 °F

Location of ManadoLocation

Historic Weather in Manado — Graph

°F

Manado temperature yesterday

Maximum temperature yesterday: 91 °F (at 11:30 AM)
Minimum temperature yesterday: 81 °F (at 2:30 AM)
Average temperature yesterday: 84 °F

Past Weeks' High & Low Weather Summary

 TemperatureHumidityPressure
High91 °F (Jul 18, 12:00 PM)100% (Jul 17, 5:30 AM)29.92 "Hg (Jul 17, 5:30 AM)
Low70 °F (Jul 24, 2:00 AM)36% (Jul 23, 11:30 AM)29.71 "Hg (Jul 21, 2:30 PM)
Average84 °F66%29.83 "Hg
* Reported Jul 16 8:00 AM — Jul 30 8:00 PM, Manado, Weather by CustomWeather, © 2014

Note: Actual official high and low records may vary slightly from our data, if they occured in-between our weather recording intervals... More about our weather records

Advertising

Manado weather history for previous 24 hours

 ConditionsComfort  
Time TempWeatherWind HumidityBarometerVisibility
8:00 PM
Jul 30
82 °FPassing clouds.10 mph58%29.86 "HgN/A
7:30 PM82 °FPassing clouds.13 mph62%29.83 "HgN/A
7:00 PM82 °FPassing clouds.15 mph62%29.83 "HgN/A
6:30 PM82 °FPassing clouds.14 mph62%29.83 "HgN/A
6:00 PM84 °FPassing clouds.14 mph58%29.80 "HgN/A
5:30 PM84 °FPassing clouds.16 mph58%29.80 "HgN/A
5:00 PM88 °FPassing clouds.15 mph52%29.77 "HgN/A
4:30 PM88 °FPassing clouds.14 mph52%29.77 "HgN/A
4:00 PM90 °FPassing clouds.16 mph49%29.77 "HgN/A
3:30 PM90 °FPassing clouds.16 mph52%29.77 "HgN/A
3:00 PM90 °FPassing clouds.17 mph52%29.77 "HgN/A
2:30 PM91 °FPassing clouds.14 mph49%29.77 "HgN/A
2:00 PM90 °FPassing clouds.17 mph55%29.77 "HgN/A
1:30 PM90 °FPassing clouds.17 mph52%29.80 "HgN/A
1:00 PM90 °FPassing clouds.17 mph52%29.80 "HgN/A
12:30 PM90 °FPassing clouds.16 mph52%29.80 "HgN/A
12:00 PM90 °FPassing clouds.17 mph52%29.80 "HgN/A
11:30 AM90 °FPassing clouds.20 mph52%29.83 "HgN/A
11:00 AM90 °FPassing clouds.18 mph52%29.83 "HgN/A
10:30 AM88 °FPassing clouds.14 mph52%29.86 "HgN/A
10:00 AM88 °FPassing clouds.18 mph52%29.86 "HgN/A
9:30 AM88 °FPassing clouds.17 mph49%29.86 "HgN/A
9:00 AM86 °FPassing clouds.18 mph52%29.86 "HgN/A
8:30 AM86 °FPassing clouds.16 mph52%29.86 "HgN/A
8:00 AM86 °FPassing clouds.16 mph49%29.86 "HgN/A
7:30 AM84 °FPassing clouds.10 mph55%29.86 "HgN/A
7:00 AM82 °FPassing clouds.9 mph62%29.86 "HgN/A
6:30 AM81 °FScattered clouds.9 mph62%29.86 "HgN/A
5:30 AM81 °FPassing clouds.8 mph62%29.83 "HgN/A
5:00 AM81 °FPassing clouds.6 mph58%29.86 "HgN/A
11:30 PM
Jul 29
82 °FPassing clouds.16 mph62%29.86 "HgN/A
11:00 PM81 °FPassing clouds.15 mph66%29.86 "HgN/A
10:30 PM82 °FPassing clouds.16 mph62%29.86 "HgN/A
10:00 PM81 °FPassing clouds.17 mph66%29.86 "HgN/A
9:30 PM82 °FPassing clouds.16 mph58%29.86 "HgN/A
9:00 PM82 °FPassing clouds.13 mph58%29.86 "HgN/A
Weather by CustomWeather, © 2014

See weather overviewHow to use our weather pages